FW2969 Weather Reports


time (UTC)temp
F
wind
direction
speed
knots
gust
knots
rain 1hr
in
rain 24hr
in
rain mn
in
humidity
%
barometer
mb
20260905221536 64 70 0.0 0.9 0.00 0.00 0.00 94 1011.2
20260905220033 66 70 0.0 0.0 0.00 0.00 0.00 95 1011.2
20260905214531 67 70 0.0 0.9 0.00 0.00 0.00 95 1011.4
20260905213027 66 70 0.0 0.9 0.00 0.00 0.00 95 1011.7
20260905211526 66 70 0.0 0.9 0.00 0.00 0.00 94 1011.8
20260905210038 66 70 0.0 0.0 0.00 0.00 0.00 94 1011.9
20260905204530 66 70 0.0 0.9 0.00 0.00 0.00 94 1011.7
20260905203023 66 70 0.0 0.0 0.00 0.00 0.00 93 1011.7
20260905201520 66 70 0.0 0.0 0.00 0.00 0.00 93 1011.7
20260905200024 66 70 0.0 0.0 0.00 0.00 0.00 93 1011.5
20260905194519 67 70 0.0 0.0 0.00 0.00 0.00 93 1011.5
20260905193022 67 70 0.0 0.0 0.00 0.00 0.00 93 1011.5
20260905191521 67 70 0.0 0.0 0.00 0.00 0.00 93 1011.5
20260905190020 68 70 0.0 0.0 0.00 0.00 0.00 93 1011.4
20260905184520 68 70 0.0 0.9 0.00 0.00 0.00 93 1011.5
20260905183016 68 70 0.0 1.7 0.00 0.00 0.00 93 1011.5
20260905181520 68 344 0.0 0.9 0.00 0.00 0.00 93 1011.5
20260905180015 68 327 0.0 0.9 0.00 0.00 0.00 92 1011.5
20260905174520 69 322 0.0 0.0 0.00 0.00 0.00 92 1011.7
20260905173013 69 322 0.0 0.9 0.00 0.00 0.00 91 1011.6
20260905171524 70 321 0.0 0.0 0.00 0.00 0.00 91 1011.4
20260905170014 70 321 0.0 0.9 0.00 0.00 0.00 90 1011.2
20260905164511 70 321 0.0 0.0 0.00 0.00 0.00 89 1011.0
20260905163010 71 321 0.0 0.0 0.00 0.00 0.00 89 1010.9
20260905161511 71 321 0.0 1.7 0.00 0.00 0.00 87 1010.8
20260905160010 72 324 0.0 0.9 0.00 0.00 0.00 86 1010.9
20260905154509 73 261 0.0 0.9 0.00 0.00 0.00 84 1010.8
20260905153010 74 278 0.0 2.6 0.00 0.00 0.00 82 1010.7
20260905151508 74 267 0.0 4.3 0.00 0.00 0.00 81 1010.7
20260905150007 75 326 0.0 3.5 0.00 0.00 0.00 81 1010.7
20260905144505 75 250 0.0 4.3 0.00 0.00 0.00 81 1010.6
20260905143005 75 305 1.7 6.1 0.00 0.00 0.00 79 1010.7
20260905141505 76 230 0.9 5.2 0.00 0.00 0.00 76 1010.7
20260905140003 76 255 0.9 5.2 0.00 0.00 0.00 77 1010.6
20260905134501 76 332 0.0 3.5 0.00 0.00 0.00 77 1010.7
20260905133003 75 288 0.9 7.8 0.00 0.00 0.00 78 1010.8
20260905131600 76 283 2.6 8.7 0.00 0.00 0.00 79 1010.9
20260905130058 75 235 0.9 9.6 0.00 0.00 0.00 81 1010.8
20260905124558 74 281 0.0 5.2 0.00 0.00 0.00 82 1010.9
20260905123059 74 263 1.7 7.0 0.00 0.00 0.00 80 1010.9
20260905121555 74 313 0.0 7.8 0.00 0.00 0.00 82 1010.9
20260905120056 74 301 2.6 7.8 0.00 0.00 0.00 80 1011.0
20260905114605 74 329 1.7 6.1 0.00 0.00 0.00 82 1011.1
20260905113053 73 245 2.6 7.0 0.00 0.00 0.00 82 1011.2
20260905111623 73 335 0.9 7.8 0.00 0.00 0.00 83 1011.2
20260905110101 73 291 1.7 9.6 0.00 0.00 0.00 84 1011.3
20260905104610 74 276 1.7 7.8 0.00 0.00 0.00 82 1011.3
20260905103051 74 267 1.7 7.8 0.00 0.00 0.00 82 1011.3
20260905101650 74 250 1.7 8.7 0.00 0.00 0.00 80 1011.2
20260905100049 73 311 1.7 7.8 0.00 0.00 0.00 81 1011.2
20260905094652 73 271 1.7 6.1 0.00 0.00 0.00 80 1011.3
20260905093052 73 280 2.6 7.8 0.00 0.00 0.00 82 1011.2
20260905091549 73 311 3.5 8.7 0.00 0.00 0.00 81 1011.2
20260905090046 73 323 2.6 8.7 0.00 0.00 0.00 80 1011.2
20260905084557 75 263 2.6 8.7 0.00 0.00 0.00 77 1011.2
20260905083043 75 313 3.5 8.7 0.00 0.00 0.00 75 1011.1
20260905081543 75 267 2.6 6.1 0.00 0.00 0.00 73 1011.1
20260905080044 75 240 1.7 7.8 0.00 0.00 0.00 71 1011.1
20260905074541 74 294 2.6 5.2 0.00 0.00 0.00 69 1011.2
20260905073037 74 327 1.7 4.3 0.00 0.00 0.00 71 1011.3
20260905071544 73 278 1.7 5.2 0.00 0.00 0.00 71 1011.3
20260905070035 73 289 0.9 4.3 0.00 0.00 0.00 70 1011.1
20260905064534 73 322 0.9 3.5 0.00 0.00 0.00 67 1011.1
20260905063033 73 298 0.0 1.7 0.00 0.00 0.00 68 1011.1
20260905061551 74 307 0.0 0.9 0.00 0.00 0.00 64 1011.0
20260905060049 74 105 0.0 0.0 0.00 0.00 0.00 57 1011.0
20260905054535 73 105 0.0 2.6 0.00 0.00 0.00 51 1010.9
20260905053024 71 95 0.0 0.0 0.00 0.00 0.00 51 1011.0
20260905051529 71 95 0.0 0.0 0.00 0.00 0.00 54 1010.8
20260905050016 69 95 0.0 0.0 0.00 0.00 0.00 57 1010.8
20260905044515 66 95 0.0 0.0 0.00 0.00 0.00 64 1010.7
20260905043018 63 95 0.0 0.9 0.00 0.00 0.00 72 1010.5
20260905041513 61 95 0.0 0.9 0.00 0.00 0.00 80 1010.4
20260905040010 60 95 0.0 0.9 0.00 0.00 0.00 87 1010.3
20260905034507 62 93 0.0 0.9 0.00 0.00 0.00 91 1010.2
20260905033003 63 93 0.0 0.9 0.00 0.00 0.00 92 1010.2
20260905031506 64 93 0.0 0.0 0.00 0.00 0.00 93 1010.1
20260905030002 63 93 0.0 0.0 0.00 0.00 0.00 92 1009.9
20260905024503 63 93 0.0 0.0 0.00 0.00 0.00 92 1009.9
20260905023100 63 93 0.0 0.0 0.00 0.00 0.00 91 1009.9
20260905021606 64 93 0.0 0.0 0.00 0.00 0.00 90 1009.8
20260905020056 64 93 0.0 0.9 0.00 0.00 0.00 91 1009.8
20260905014554 65 93 0.0 0.0 0.00 0.00 0.00 89 1009.7
20260905013113 65 93 0.0 0.0 0.00 0.00 0.00 88 1009.8
20260905011550 65 93 0.0 0.0 0.00 0.00 0.00 86 1009.8
20260905010054 66 93 0.0 0.0 0.00 0.00 0.00 84 1009.8
20260905004545 67 93 0.0 0.0 0.00 0.00 0.00 81 1009.9
20260905003042 67 93 0.0 0.0 0.00 0.00 0.00 73 1009.9
20260905001539 67 93 0.0 1.7 0.00 0.00 0.00 60 1010.0
20260905000038 67 101 0.0 0.9 0.00 0.00 0.00 56 1009.9
20260904234541 67 101 0.0 0.0 0.00 0.00 0.00 57 1009.9
20260904233037 67 101 0.0 0.0 0.00 0.00 0.00 58 1009.9
20260904231536 67 101 0.0 0.9 0.00 0.00 0.00 59 1009.9
20260904230055 67 101 0.0 1.7 0.00 0.00 0.00 58 1010.0
20260904224533 67 101 0.0 1.7 0.00 0.00 0.00 56 1010.0
20260904223030 68 101 0.9 2.6 0.00 0.00 0.00 55 1010.2